{"data":{"norad_id":49160,"intl_designator":"2021-082AG","name":"STARLINK-3095","alt_names":[],"object_type":"PAYLOAD","status":"ACTIVE","operator":null,"country":"US","launch_date":"2021-09-14","launch_site_code":"AFWTR","launch_vehicle":null,"mission":null,"orbit_class":"UNKNOWN","rcs_meters":null,"size_class":null,"mass_kg":null,"dimensions":null,"purposes":["comms"],"wikipedia_slug":null,"has_3d_model":false,"image_url":null,"decayed_at":null,"tle_current":{"epoch":"2026-09-20T03:33:24.427296Z","epoch_age_seconds":71767,"freshness":"FRESH","line1":"1 49160U 21082AG  26263.14819939  .00000912  00000+0  84251-4 0  9991","line2":"2 49160  69.9999 164.1396 0002965 272.1897  87.8922 14.98330407276179","mean_motion":14.98330407,"eccentricity":0.0002965,"inclination_deg":69.9999,"raan_deg":164.1396,"arg_perigee_deg":272.1897,"mean_anomaly_deg":87.8922,"bstar":8.4251e-5,"rev_number":27617,"period_min":96.106973019603,"perigee_km":569.99390051179,"apogee_km":574.11536414976,"semimajor_km":6950.1916323308,"source":"CELESTRAK","updated_at":"2026-09-20T09:00:39.251705Z"}}}